Location: Saratoga Springs
(43.0831°N, 73.7850°W)
Time: 22:21:02
(UTC-04:00)

Vanguard 2 Rocket - Pass Details

Date: 24 April 2024
Orbit: 556 x 3304 km, 32.9° (Epoch: 21 May)

Event Time Altitude Azimuth Distance (km) Brightness Sun altitude
Rises 19:53:10 0° 216° (SW) 5,105 11.0 -1.6°
Reaches altitude 10° 19:56:24 10° 208° (SSW) 4,455 10.5 -2.1°
Maximum altitude 20:08:13 38° 146° (SE) 3,671 9.6 -4.1°
Drops below altitude 10° 20:24:48 10° 88° (E) 6,221 10.6 -6.9°
Sets 20:30:19 0° 82° (E) 7,292 11.0 -7.8°
